Tracking 22094 objects as of 17-Jan-2021
HD Live streaming from Space Station
objects crossing your sky now

COSMOS 2292

Track COSMOS 2292 now!
10-day predictions
COSMOS 2292 is classified as:


NORAD ID: 23278
Int'l Code: 1994-061A
Perigee: 403.1 km
Apogee: 1,704.3 km
Inclination: 83.0 °
Period: 106.1 minutes
Semi major axis: 7424 km
RCS: 2.958 m2 (large)
Launch date: September 27, 1994
Source: Commonwealth of Independent States (former USSR) (CIS)
Launch site: PLESETSK MISSILE AND SPACE COMPLEX (PKMTR)
aabbcc
Your satellite tracking list
Your tracking list is empty




NASA's NSSDC Master Catalog

Two Line Element Set (TLE):
1 23278U 94061A   21017.47828610  .00000264  00000-0  22105-4 0  9995
2 23278  82.9822 280.5494 0876311 236.5859 114.8504 13.57016835288810
Source of the keplerian elements: AFSPC